[[{"header":{"parameterUnit":"m.s-1","parameterCategory":1,"la1":30.2991,"la2":30.254,"lo1":-89.0895,"lo2":-89.0444,"dy":0.0017,"dx":0.0017,"nx":28,"ny":28,"refTime":"2025-07-17T21:00:00:Z","depth":0,"parameterNumber":2,"parameterNumberName":"U-component_of_WINDS"},"data":[0,0,0,0,0,0,0,0,0,0,0,0,0,0,0,0,0,0,0,0,0,0,0,0,0,0,0,0,0,0,0,0,0,0,0,0,0,0,0,0,0,0,0,0,0,0,0,0,0,0,0,0,0,0,0,0,0,0,3.6473,3.6473,0,3.6474,3.6474,3.6474,3.6387,3.6385,3.6382,3.638,3.638,3.6382,3.6384,0,0,0,0,0,0,0,0,0,0,0,0,0,3.6395,3.6397,3.6473,3.6473,3.6473,3.6474,3.6474,3.6474,3.6387,3.6385,3.6382,3.6379,3.638,3.6382,3.6385,0,0,0,0,0,0,0,0,0,0,0,0,0,3.6416,3.6397,3.6473,3.643,3.6426,3.6474,3.6474,3.6474,3.6388,3.6385,3.6381,3.6378,3.6379,3.6382,3.6385,3.6474,0,0,3.6395,3.6396,0,0,0,0,0,0,0,0,3.6415,3.6419,3.6436,3.6433,3.6429,3.6427,3.6446,3.6474,3.6389,3.6402,3.638,3.6376,3.6399,3.64,3.6408,3.6474,3.6474,3.6395,3.6397,3.6398,3.6399,0,0,0,0,0,0,0,3.6413,3.6418,3.6473,3.6437,3.6432,3.641,3.6409,3.6451,3.642,3.6401,3.6395,3.6396,3.6396,3.6405,3.6407,3.6474,3.6395,3.6398,3.64,3.6401,3.6611,3.6614,0,0,0,0,0,0,3.6418,3.6418,3.6473,3.6473,3.6413,3.6414,3.6413,3.6431,3.6419,3.6414,3.6399,3.6392,3.6401,3.6403,3.6407,3.6507,3.6398,3.6401,3.6403,3.6607,3.6611,3.6615,0,0,0,0,0,0,3.6417,3.6424,3.6473,3.6444,3.6448,3.6419,3.644,3.6433,3.6441,3.6417,3.6411,3.6414,3.6398,3.6402,3.6457,3.6506,3.6403,3.6406,3.6603,3.6608,3.6613,3.6711,0,0,0,0,0,0,3.6415,3.6424,3.6457,3.6445,3.645,3.6524,3.6443,3.6435,3.6447,3.6438,3.643,3.6425,3.6396,3.6453,3.646,3.6509,3.6408,3.6598,3.6605,3.6612,3.6704,3.672,3.6733,0,0,0,0,0,3.6412,3.6485,3.646,3.6467,3.6492,3.6527,3.653,3.6495,3.6452,3.6485,3.6469,3.6425,3.6501,3.6459,3.6467,3.6517,3.6595,3.6603,3.6611,3.6697,3.6716,3.6733,0,0,0,0,0,0,3.6504,3.6483,3.6454,3.6525,3.6529,3.6513,3.6553,3.6517,3.6533,3.6524,3.648,3.6478,3.654,3.6535,3.6489,3.6601,3.654,3.655,3.6602,3.6621,3.6635,3.6634,3.6411,0,0,0,0,0,3.6533,3.6564,3.6544,3.6608,3.6612,3.6583,3.6597,3.657,3.6571,3.6572,3.6561,3.6564,3.6588,3.6604,3.6625,3.6703,3.6699,3.6742,3.6757,3.6769,3.6777,3.6816,3.6834,3.6642,3.6642,3.6642,0,0,3.6592,3.6584,3.6606,3.6627,3.6626,3.6658,3.6584,3.6622,3.6645,3.6578,3.6628,3.6621,3.6621,3.6688,3.6716,3.6685,3.683,3.6779,3.6789,3.6791,3.6826,3.6845,3.6861,3.6648,3.6647,3.6646,0,0,3.6715,3.6714,3.6766,3.6767,3.6768,3.6748,3.6761,3.675,3.6742,3.6793,3.6742,3.6769,3.6812,3.6814,3.682,3.6945,3.6904,3.6954,3.703,3.7068,3.7083,3.7096,3.7139,3.7155,3.6963,3.6963,3.6963,0,3.6788,3.6835,3.6798,3.6839,3.6848,3.679,3.6842,3.6845,3.6852,3.686,3.6825,3.6876,3.6873,3.6938,3.6968,3.6976,3.6988,3.6953,3.7084,3.7097,3.7109,3.7148,3.7165,3.6969,3.6968,3.6967,3.6967,0,3.6924,3.6957,3.7,3.7008,3.7023,3.7069,3.7038,3.7058,3.703,3.7014,3.7065,3.7059,3.7077,3.7091,3.7065,3.7153,3.7133,3.7092,3.7028,3.7133,3.717,3.7185,3.6977,3.6975,3.6973,3.6972,0,0,3.7103,3.709,3.7106,3.7108,3.7105,3.7129,3.7173,3.7191,3.7207,3.7215,3.7249,3.7287,3.7249,3.7257,3.723,3.7264,3.736,3.7218,3.7218,3.7243,3.7455,3.7483,3.7501,3.7335,3.7338,3.734,3.7454,0,3.7221,3.7294,3.7262,3.7338,3.7367,3.7313,3.735,3.7352,3.7338,3.7361,3.7346,3.7372,3.7322,3.7325,3.7357,3.7342,3.7402,3.7334,3.7364,3.7366,3.7363,3.7521,3.7551,3.7659,3.7468,3.747,3.7472,0,3.7367,3.738,3.7459,3.7449,3.746,3.7495,3.7507,3.753,3.7531,3.7518,3.7527,3.7493,3.7534,3.7473,3.7529,3.7483,3.7494,3.7489,3.7492,3.7491,3.7423,3.7522,3.7692,3.7708,3.7495,3.7493,3.7491,0,3.7487,3.7524,3.7576,3.758,3.757,3.7595,3.7592,3.7589,3.7601,3.7613,3.762,3.7637,3.7646,3.7659,3.763,3.7589,3.7689,3.7626,3.7678,3.7679,3.7699,3.7698,3.7871,3.7712,3.7711,3.7711,3.7711,0,3.7619,3.7669,3.7629,3.766,3.7714,3.7678,3.7732,3.7723,3.7721,3.7749,3.7704,3.7731,3.7692,3.7716,3.7693,3.7741,3.7747,3.7737,3.7729,3.7739,3.774,3.7743,3.7734,3.7715,3.7714,3.7714,3.7713,0,3.7761,3.7736,3.7788,3.7775,3.7772,3.7813,3.7801,3.7829,3.7813,3.7849,3.7855,3.783,3.7855,3.7828,3.7852,3.7836,3.7901,3.7884,3.79,3.7894,3.7947,3.7941,3.8126,3.8148,3.7977,3.7979,3.7981,0,3.7845,3.7882,3.7873,3.7888,3.7888,3.7914,3.7926,3.7892,3.7906,3.791,3.7937,3.7959,3.7974,3.8017,3.8,3.8018,3.7999,3.8063,3.8002,3.801,3.7997,3.7994,3.7996,3.8075,3.8077,3.8079,3.808,0,3.7998,3.7984,3.8003,3.8018,3.8034,3.8044,3.8051,3.8067,3.8031,3.8049,3.8074,3.8086,3.811,3.8132,3.8145,3.8141,3.8104,3.81,3.8112,3.8121,3.8127,3.8122,3.7931,3.8095,3.8094,3.8092,3.8092,3.8091,3.8111,3.8141,3.8138,3.8161,3.8163,3.817,3.8195,3.8182,3.8203,3.8219,3.8198,3.8229,3.8228,3.8241,3.8242,3.8265,3.8238,3.8257,3.8261,3.8265,3.8272,3.8127,3.8268,3.8268,3.8267,3.8267,3.8266,0,3.8258,3.8254,3.8276,3.8286,3.8304,3.827,3.8275,3.8292,3.832,3.8322,3.8338,3.8367,3.8387,3.8373,3.839,3.8411,3.8395,3.8417,3.8413,3.8413,3.8297,3.8283,3.843,3.843,3.843,3.843,3.843,3.843,3.8337,3.8384,3.837,3.8418,3.8413,3.8443,3.8449,3.8455,3.8456,3.849,3.8507,3.8498,3.8493,3.851,3.8527,3.8522,3.8529,3.8557,3.8546,3.8437,3.8421,3.8406,3.8392,3.8559,3.856,3.8659,3.866,3.8661]},{"header":{"parameterUnit":"m.s-1","parameterCategory":1,"la1":30.2991,"la2":30.254,"lo1":-89.0895,"lo2":-89.0444,"dy":0.0017,"dx":0.0017,"nx":28,"ny":28,"refTime":"2025-07-17T21:00:00:Z","depth":0,"parameterNumber":3,"parameterNumberName":"V-component_of_WINDS"},"data":[0,0,0,0,0,0,0,0,0,0,0,0,0,0,0,0,0,0,0,0,0,0,0,0,0,0,0,0,0,0,0,0,0,0,0,0,0,0,0,0,0,0,0,0,0,0,0,0,0,0,0,0,0,0,0,0,0,0,4.3111,4.3114,0,4.3398,4.3401,4.3404,4.3527,4.3526,4.3526,4.3525,4.3817,4.3825,4.3833,0,0,0,0,0,0,0,0,0,0,0,0,0,4.2665,4.2673,4.311,4.3114,4.3118,4.3397,4.3401,4.3405,4.3527,4.3526,4.3525,4.3525,4.3814,4.3824,4.3834,0,0,0,0,0,0,0,0,0,0,0,0,0,4.2896,4.2675,4.311,4.3212,4.3224,4.3396,4.3401,4.3406,4.3527,4.3526,4.3525,4.3525,4.3811,4.3823,4.3835,4.3927,0,0,4.3873,4.3879,0,0,0,0,0,0,0,0,4.2883,4.2912,4.3193,4.3205,4.3219,4.3426,4.3351,4.3581,4.3527,4.3412,4.3525,4.3524,4.3687,4.371,4.3765,4.394,4.3953,4.3874,4.3882,4.3887,4.3891,0,0,0,0,0,0,0,4.2867,4.2901,4.3224,4.3197,4.3213,4.3243,4.3275,4.3395,4.355,4.3422,4.3431,4.3464,4.3694,4.3753,4.3773,4.3957,4.3874,4.3885,4.3893,4.3897,4.4222,4.4223,0,0,0,0,0,0,4.2834,4.2886,4.3215,4.3233,4.3046,4.3251,4.3287,4.336,4.3549,4.3577,4.3464,4.3468,4.3732,4.3758,4.3784,4.3904,4.3887,4.3899,4.3906,4.4221,4.4222,4.4223,0,0,0,0,0,0,4.2824,4.2862,4.3203,4.3062,4.3108,4.326,4.3341,4.3366,4.3425,4.3581,4.3609,4.3496,4.3733,4.3766,4.3891,4.3915,4.3904,4.3915,4.4219,4.4221,4.4223,4.4143,0,0,0,0,0,0,4.2811,4.2858,4.2895,4.3062,4.3115,4.3306,4.3342,4.3372,4.3446,4.3455,4.3619,4.3645,4.3735,4.3871,4.3903,4.3932,4.3925,4.4218,4.422,4.4222,4.4144,4.4142,4.414,0,0,0,0,0,4.2794,4.2861,4.2896,4.2935,4.3165,4.3307,4.3337,4.344,4.3448,4.3486,4.3586,4.364,4.3907,4.3883,4.3919,4.3953,4.4217,4.4219,4.4222,4.4145,4.4143,4.414,0,0,0,0,0,0,4.2692,4.2885,4.2926,4.3049,4.316,4.3327,4.3379,4.3433,4.3545,4.3548,4.367,4.3706,4.3819,4.3899,4.3868,4.4051,4.4066,4.4076,4.3996,4.3994,4.3992,4.3971,4.3935,0,0,0,0,0,4.2683,4.2784,4.2946,4.3039,4.3093,4.3225,4.3291,4.3361,4.3481,4.3529,4.3639,4.3753,4.3863,4.3933,4.4043,4.4156,4.4194,4.4197,4.4195,4.4192,4.42,4.4266,4.4269,4.4232,4.4232,4.4232,0,0,4.2667,4.2785,4.2841,4.3021,4.3116,4.3216,4.3265,4.3369,4.3445,4.3545,4.3669,4.3753,4.3889,4.4008,4.4066,4.4077,4.4218,4.4196,4.4193,4.4202,4.4269,4.4272,4.4275,4.4234,4.4234,4.4233,0,0,4.2689,4.2788,4.2876,4.297,4.3113,4.3201,4.3222,4.3381,4.3441,4.3567,4.3644,4.3735,4.3922,4.4016,4.4088,4.4144,4.4198,4.4176,4.4166,4.4228,4.4231,4.4235,4.4255,4.4261,4.4183,4.4183,4.4183,0,4.2651,4.2807,4.2914,4.3015,4.3091,4.3187,4.3276,4.3362,4.3533,4.3584,4.3594,4.3831,4.3929,4.4071,4.4085,4.414,4.4167,4.4159,4.4222,4.4227,4.4231,4.4252,4.4259,4.4179,4.418,4.418,4.418,0,4.2752,4.2858,4.2912,4.3076,4.3158,4.3252,4.3374,4.3444,4.3506,4.3592,4.3719,4.384,4.3976,4.4015,4.4075,4.4166,4.4168,4.4199,4.4217,4.4229,4.4251,4.426,4.4174,4.4175,4.4177,4.4177,0,0,4.2719,4.294,4.2958,4.3034,4.3198,4.3282,4.338,4.3513,4.3571,4.3685,4.3771,4.3926,4.3956,4.4037,4.4109,4.4164,4.4201,4.4188,4.4193,4.4187,4.4308,4.4284,4.4292,4.4237,4.4239,4.424,4.4297,0,4.2764,4.2945,4.3044,4.3183,4.3282,4.3373,4.3459,4.3568,4.3651,4.3747,4.3838,4.3946,4.3977,4.4027,4.4085,4.4184,4.4227,4.4181,4.4317,4.4321,4.4281,4.4303,4.4279,4.4326,4.4306,4.4307,4.4308,0,4.2841,4.2954,4.3103,4.3255,4.3301,4.3376,4.3506,4.3596,4.3722,4.3778,4.3868,4.394,4.4046,4.4054,4.4203,4.4169,4.4231,4.4287,4.4292,4.4309,4.4316,4.4321,4.4344,4.435,4.4322,4.4321,4.432,0,4.2802,4.2992,4.3105,4.3167,4.3347,4.3398,4.3475,4.36,4.3674,4.3787,4.3836,4.396,4.4027,4.4121,4.4224,4.4221,4.4362,4.4379,4.4412,4.4409,4.4438,4.4435,4.4471,4.4476,4.4476,4.4475,4.4475,0,4.2842,4.293,4.309,4.316,4.326,4.3373,4.3469,4.3554,4.3664,4.3751,4.3837,4.3917,4.4048,4.4144,4.4225,4.4335,4.4365,4.4413,4.4434,4.4406,4.44,4.4449,4.4448,4.4477,4.4477,4.4477,4.4476,0,4.2817,4.2928,4.3057,4.3218,4.326,4.3327,4.3464,4.3535,4.3621,4.3731,4.3763,4.3899,4.4017,4.4128,4.4285,4.4339,4.445,4.4476,4.4408,4.4419,4.4446,4.4442,4.4515,4.453,4.4523,4.4523,4.4523,0,4.2835,4.2905,4.3072,4.3137,4.3213,4.3316,4.3392,4.3505,4.358,4.3728,4.3781,4.3905,4.401,4.4193,4.4306,4.4426,4.4457,4.4474,4.4476,4.4446,4.4458,4.4453,4.446,4.4472,4.4471,4.4471,4.4471,0,4.2857,4.2908,4.3014,4.3139,4.3227,4.333,4.3437,4.3485,4.3618,4.3698,4.3819,4.3901,4.4061,4.4183,4.4316,4.4396,4.4456,4.4469,4.4483,4.4456,4.4414,4.4438,4.4402,4.4467,4.4468,4.4468,4.4468,4.4468,4.2855,4.2921,4.3049,4.3164,4.3255,4.3353,4.3427,4.3523,4.3626,4.3766,4.3826,4.3949,4.4072,4.4258,4.4336,4.4434,4.4447,4.4467,4.4473,4.4476,4.4471,4.4397,4.4458,4.4458,4.4459,4.4459,4.4459,0,4.2881,4.2968,4.3072,4.3219,4.3309,4.3357,4.3477,4.3549,4.3656,4.3766,4.3868,4.4007,4.4126,4.4247,4.4372,4.4427,4.4457,4.4456,4.4453,4.4471,4.4451,4.4427,4.4429,4.4429,4.4429,4.4429,4.4429,4.4429,4.2906,4.302,4.3086,4.3246,4.3332,4.3453,4.3518,4.3608,4.3696,4.3848,4.3947,4.4025,4.414,4.4274,4.4385,4.4418,4.446,4.4451,4.4491,4.4471,4.4472,4.4474,4.4452,4.4459,4.4459,4.4504,4.4504,4.4504]}]]